Location: Unspecified
(54.1780°N, 0.0000°E)
Time: 19:13:49
(UTC+00:00)

Vanguard 2 - Visible Passes

Search period start: 07 August 2020 00:00
Search period end: 17 August 2020 00:00
Orbit: 553 x 2938 km, 32.9° (Epoch: 07 August)

Date Brightness Start Highest point End Pass type
(mag) Time Alt. Az. Time Alt. Az. Time Alt. Az.
07 Aug 10.3 21:24:32 10° SSW 21:34:07 21° S 21:39:00 16° SE visible
07 Aug 10.3 23:34:09 10° SW 23:40:26 20° SSW 23:40:26 20° SSW visible
08 Aug 10.2 21:41:10 10° SW 21:51:33 23° S 21:56:03 18° SE visible
08 Aug 10.4 23:51:37 10° WSW 23:57:28 19° SSW 23:57:28 19° SSW visible
09 Aug 10.1 21:58:05 10° SW 22:08:58 25° S 22:12:56 21° SSE visible
10 Aug 10.5 00:09:17 10° WSW 00:14:20 18° SW 00:14:20 18° SW visible
10 Aug 10.7 20:06:05 10° SSW 20:17:32 23° SSE 20:26:39 10° ESE visible
10 Aug 10.1 22:15:14 10° SW 22:26:21 26° S 22:29:41 23° SSE visible
11 Aug 10.6 00:27:13 10° WSW 00:31:05 15° SW 00:31:05 15° SW visible
11 Aug 10.7 20:22:35 10° SW 20:34:55 26° S 20:44:33 10° ESE visible
11 Aug 10.2 22:32:35 10° WSW 22:43:42 26° SSW 22:46:21 24° S visible
12 Aug 10.8 00:45:31 10° WSW 00:47:44 13° SW 00:47:44 13° SW visible
12 Aug 10.6 20:39:24 10° SW 20:52:19 28° S 21:01:33 12° SE visible
12 Aug 10.2 22:50:07 10° WSW 23:01:00 25° SSW 23:02:55 24° S visible
13 Aug 10.5 20:56:27 10° SW 21:09:42 30° S 21:18:03 15° SE visible
13 Aug 10.4 23:07:49 10° WSW 23:18:14 23° SSW 23:19:25 23° SSW visible
14 Aug 10.4 21:13:42 10° WSW 21:27:03 30° S 21:34:31 18° SE visible
14 Aug 10.5 23:25:43 10° WSW 23:35:23 21° SSW 23:35:53 21° SSW visible
15 Aug 10.4 21:31:06 10° WSW 21:44:23 30° SSW 21:50:56 20° SSE visible
15 Aug 10.7 23:43:56 10° WSW 23:52:18 18° SW 23:52:18 18° SW visible
16 Aug 10.5 21:48:41 10° WSW 22:01:39 28° SSW 22:07:19 22° SSE visible
